DW0664 Weather Reports


time (UTC)temp
C
wind
direction
speed
KPH
gust
KPH
rain 1hr
cm
rain 24hr
cm
rain mn
cm
humidity
%
barometer
mb
20260509201523 32 51 0.0 1.6 0.00 0.00 0.00 61 1010.9
20260509201021 32 52 0.0 1.6 0.00 0.00 0.00 57 1011.0
20260509200516 32 67 1.6 1.6 0.00 0.00 0.00 59 1011.0
20260509200012 32 67 0.0 0.0 0.00 0.00 0.00 62 1011.1
20260509195502 32 24 3.2 4.8 0.00 0.00 0.00 60 1011.1
20260509195001 31 65 0.0 1.6 0.00 0.00 0.00 62 1011.2
20260509194457 31 32 1.6 3.2 0.00 0.00 0.00 64 1011.1
20260509193954 31 65 0.0 0.0 0.00 0.00 0.00 62 1011.2
20260509193454 31 85 0.0 1.6 0.00 0.00 0.00 61 1011.4
20260509192950 31 57 0.0 0.0 0.00 0.00 0.00 62 1011.2
20260509192447 31 49 1.6 1.6 0.00 0.00 0.00 62 1011.4
20260509191942 31 65 0.0 1.6 0.00 0.00 0.00 67 1011.5
20260509191438 31 62 0.0 1.6 0.00 0.00 0.00 62 1011.5
20260509190934 31 57 1.6 1.6 0.00 0.00 0.00 64 1011.5
20260509190431 31 86 0.0 1.6 0.00 0.00 0.00 62 1011.7
20260509185929 31 72 0.0 1.6 0.00 0.00 0.00 66 1011.5
20260509185426 31 57 0.0 3.2 0.00 0.00 0.00 65 1011.9
20260509184922 31 54 0.0 0.0 0.00 0.00 0.00 68 1011.8
20260509184420 30 57 1.6 1.6 0.00 0.00 0.00 65 1012.0
20260509183917 31 159 1.6 3.2 0.00 0.00 0.00 68 1012.0
20260509183411 30 60 0.0 1.6 0.00 0.00 0.00 71 1012.1
20260509182908 30 68 0.0 1.6 0.00 0.00 0.00 70 1012.1
20260509182404 30 56 0.0 1.6 0.00 0.00 0.00 70 1012.1
20260509181902 30 62 1.6 1.6 0.00 0.00 0.00 68 1012.1
20260509181359 30 54 0.0 0.0 0.00 0.00 0.00 70 1012.4
20260509180856 30 66 0.0 1.6 0.00 0.00 0.00 70 1012.4
20260509180352 30 58 0.0 1.6 0.00 0.00 0.00 71 1012.4
20260509175849 30 64 0.0 3.2 0.00 0.00 0.00 70 1012.4
20260509175345 30 111 1.6 3.2 0.00 0.00 0.00 70 1012.6
20260509174841 30 67 1.6 1.6 0.00 0.00 0.00 73 1012.8
20260509174337 29 54 0.0 1.6 0.00 0.00 0.00 77 1012.7
20260509173833 28 97 0.0 1.6 0.00 0.00 0.00 76 1012.8
20260509173329 27 84 0.0 1.6 0.00 0.00 0.00 82 1013.1
20260509172825 27 66 0.0 0.0 0.00 0.00 0.00 82 1013.0
20260509172322 26 69 0.0 0.0 0.00 0.00 0.00 82 1013.1
20260509171818 27 77 0.0 0.0 0.00 0.00 0.00 82 1013.0
20260509171314 27 70 0.0 0.0 0.00 0.00 0.00 83 1013.0
20260509170810 26 56 0.0 1.6 0.00 0.00 0.00 82 1013.0
20260509170306 27 75 0.0 1.6 0.00 0.00 0.00 82 1012.9
20260509165806 26 65 0.0 0.0 0.00 0.00 0.00 85 1013.0
20260509165301 26 80 0.0 0.0 0.00 0.00 0.00 85 1013.2
20260509164757 26 65 0.0 0.0 0.00 0.00 0.00 86 1013.0
20260509164253 26 61 0.0 0.0 0.00 0.00 0.00 86 1013.2
20260509163750 26 66 0.0 0.0 0.00 0.00 0.00 86 1013.0
20260509163246 26 65 0.0 0.0 0.00 0.00 0.00 87 1013.1
20260509162745 25 66 0.0 0.0 0.00 0.00 0.00 87 1013.2
20260509162239 25 68 0.0 0.0 0.00 0.00 0.00 87 1013.0
20260509161735 25 75 0.0 0.0 0.00 0.00 0.00 88 1013.1
20260509161231 25 65 0.0 0.0 0.00 0.00 0.00 88 1013.2
20260509160726 25 65 0.0 0.0 0.00 0.00 0.00 88 1013.1
20260509160223 25 69 0.0 0.0 0.00 0.00 0.00 88 1013.0
20260509155718 25 66 0.0 0.0 0.00 0.00 0.00 88 1013.1
20260509155215 25 70 0.0 0.0 0.00 0.00 0.00 88 1013.1
20260509154711 25 80 0.0 1.6 0.00 0.00 0.00 89 1013.0
20260509154208 25 58 0.0 0.0 0.00 0.00 0.00 88 1012.9
20260509153705 25 70 0.0 1.6 0.00 0.00 0.00 89 1013.1
20260509153202 25 65 0.0 0.0 0.00 0.00 0.00 89 1013.1
20260509152658 25 66 0.0 0.0 0.00 0.00 0.00 90 1013.0
20260509152155 25 63 0.0 1.6 0.00 0.00 0.00 89 1013.2
20260509151651 25 65 0.0 0.0 0.00 0.00 0.00 90 1013.0
20260509151149 25 71 0.0 1.6 0.00 0.00 0.00 91 1013.1
20260509150647 24 49 1.6 1.6 0.00 0.00 0.00 91 1013.1
20260509150144 24 78 1.6 3.2 0.00 0.00 0.00 91 1013.1
20260509145640 24 66 0.0 0.0 0.00 0.00 0.00 92 1012.8
20260509145136 24 65 0.0 3.2 0.00 0.00 0.00 92 1012.6
20260509144633 23 63 0.0 0.0 0.00 0.00 0.00 92 1012.8
20260509144130 23 64 0.0 0.0 0.00 0.00 0.00 92 1012.3
20260509143627 23 136 1.6 4.8 0.00 0.00 0.00 92 1012.2
20260509143124 23 73 0.0 1.6 0.00 0.00 0.00 93 1012.0
20260509142619 23 80 3.2 6.4 0.00 0.00 0.00 93 1011.7
20260509142116 23 45 0.0 1.6 0.00 0.00 0.00 94 1011.8
20260509141612 23 81 0.0 1.6 0.00 0.00 0.00 94 1012.3
20260509141109 23 74 1.6 4.8 0.00 0.00 0.00 95 1012.0
20260509140606 23 38 0.0 3.2 0.00 0.00 0.00 95 1011.8
20260509140104 23 89 0.0 3.2 0.00 0.00 0.00 95 1011.7
20260509135601 23 73 0.0 1.6 0.00 0.00 0.00 96 1011.7
20260509135058 23 119 1.6 3.2 0.00 0.00 0.00 96 1011.9
20260509134555 23 72 1.6 3.2 0.00 0.00 0.00 96 1012.3
20260509134053 23 86 1.6 3.2 0.00 0.00 0.00 97 1012.2
20260509133549 23 93 1.6 3.2 0.00 0.00 0.00 97 1011.9
20260509133047 22 87 1.6 4.8 0.00 0.00 0.00 97 1012.0
20260509132545 22 75 0.0 1.6 0.00 0.00 0.00 98 1011.9
20260509132043 22 66 0.0 1.6 0.00 0.00 0.00 98 1011.9
20260509131539 22 95 3.2 6.4 0.00 0.00 0.00 98 1012.0
20260509131036 22 72 0.0 1.6 0.00 0.00 0.00 98 1012.2
20260509130531 22 62 0.0 0.0 0.00 0.00 0.00 98 1012.1
20260509130029 22 64 0.0 1.6 0.00 0.00 0.00 99 1011.8
20260509125525 22 72 0.0 0.0 0.00 0.00 0.00 99 1011.8
20260509125022 22 82 3.2 3.2 0.00 0.00 0.00 99 1012.2
20260509124518 22 68 0.0 0.0 0.00 0.00 0.00 99 1011.8
20260509124016 22 75 0.0 1.6 0.00 0.00 0.00 99 1011.9
20260509123513 22 62 0.0 0.0 0.00 0.00 0.00 99 1011.7
20260509123009 22 67 0.0 0.0 0.00 0.00 0.00 99 1011.9
20260509122506 22 70 0.0 0.0 0.00 0.00 0.00 99 1011.8
20260509122003 22 62 0.0 0.0 0.00 0.00 0.00 99 1012.4
20260509121459 22 75 0.0 0.0 0.00 0.00 0.00 99 1012.2
20260509120958 22 56 0.0 0.0 0.00 0.00 0.00 99 1012.4
20260509120455 22 62 0.0 0.0 0.00 0.00 0.00 99 1012.5
20260509115953 22 60 0.0 0.0 0.00 0.00 0.00 99 1012.5
20260509115450 22 67 0.0 0.0 0.00 0.00 0.00 98 1012.3
20260509114948 22 60 0.0 0.0 0.00 0.00 0.00 98 1012.3
20260509114446 22 56 0.0 0.0 0.00 0.00 0.00 98 1012.5
20260509113945 22 67 0.0 0.0 0.00 0.00 0.00 98 1012.3
20260509113442 22 68 0.0 1.6 0.00 0.00 0.00 98 1012.6
20260509112938 22 54 0.0 1.6 0.00 0.00 0.00 98 1012.5
20260509112436 22 39 0.0 1.6 0.00 0.00 0.00 98 1012.5
20260509111932 22 63 0.0 0.0 0.00 0.00 0.00 98 1012.3
20260509111430 22 68 0.0 1.6 0.00 0.00 0.00 98 1012.1
20260509110927 22 64 1.6 1.6 0.00 0.00 0.00 98 1012.1
20260509110423 22 59 0.0 0.0 0.00 0.00 0.00 98 1012.2
20260509105921 22 65 0.0 1.6 0.00 0.00 0.00 98 1012.4
20260509105420 22 64 0.0 0.0 0.00 0.00 0.00 98 1012.3
20260509104916 22 56 0.0 0.0 0.00 0.00 0.00 98 1012.6
20260509104413 22 62 0.0 0.0 0.00 0.00 0.00 98 1012.3
20260509103911 22 66 0.0 0.0 0.00 0.00 0.00 98 1012.5
20260509103407 22 61 0.0 0.0 0.00 0.00 0.00 98 1012.6
20260509102906 22 69 0.0 0.0 0.00 0.00 0.00 98 1012.8
20260509102403 22 65 0.0 0.0 0.00 0.00 0.00 98 1012.7
20260509101859 22 65 0.0 0.0 0.00 0.00 0.00 98 1012.6
20260509101355 22 64 0.0 0.0 0.00 0.00 0.00 97 1012.6
20260509100853 22 64 0.0 0.0 0.00 0.00 0.00 97 1012.7
20260509100350 22 64 0.0 0.0 0.00 0.00 0.00 97 1012.4
20260509095846 22 63 0.0 0.0 0.00 0.00 0.00 97 1012.2
20260509095344 22 64 0.0 0.0 0.00 0.00 0.00 97 1012.3
20260509094841 22 65 0.0 0.0 0.00 0.00 0.00 97 1012.4
20260509094337 22 66 0.0 0.0 0.00 0.00 0.00 97 1012.1
20260509093835 22 67 0.0 1.6 0.00 0.00 0.00 97 1012.0
20260509093332 22 68 0.0 0.0 0.00 0.00 0.00 97 1011.5
20260509092831 22 74 0.0 1.6 0.00 0.00 0.00 97 1011.5
20260509092328 22 74 0.0 1.6 0.00 0.00 0.00 97 1011.9
20260509091826 22 68 0.0 0.0 0.00 0.00 0.00 97 1011.9
20260509091323 22 67 0.0 0.0 0.00 0.00 0.00 97 1011.9
20260509090820 22 62 0.0 0.0 0.00 0.00 0.00 97 1012.2
20260509090317 22 71 0.0 1.6 0.00 0.00 0.00 97 1012.0
20260509085814 22 66 0.0 0.0 0.00 0.00 0.00 97 1012.1
20260509085312 22 78 0.0 0.0 0.00 0.00 0.00 97 1012.2
20260509084808 22 65 0.0 0.0 0.00 0.00 0.00 97 1012.2
20260509084305 22 66 0.0 0.0 0.00 0.00 0.00 97 1012.5
20260509083803 22 65 0.0 0.0 0.00 0.00 0.00 97 1012.5
20260509083259 22 66 0.0 0.0 0.00 0.00 0.00 97 1012.3
20260509082756 22 65 0.0 0.0 0.00 0.00 0.00 97 1012.3
20260509082252 22 63 0.0 0.0 0.00 0.00 0.00 96 1012.5
20260509081749 22 62 0.0 1.6 0.00 0.00 0.00 96 1012.3
20260509081247 22 57 0.0 0.0 0.00 0.00 0.00 96 1012.4
20260509080745 22 69 0.0 1.6 0.00 0.00 0.00 96 1012.3
20260509080242 22 68 0.0 0.0 0.00 0.00 0.00 96 1012.4
20260509075741 22 69 0.0 1.6 0.00 0.00 0.00 96 1012.4
20260509075238 22 64 0.0 0.0 0.00 0.00 0.00 96 1012.2
20260509074734 22 68 0.0 0.0 0.00 0.00 0.00 96 1012.3
20260509074232 22 68 0.0 0.0 0.00 0.00 0.00 96 1012.3
20260509073728 22 77 0.0 3.2 0.00 0.00 0.00 96 1012.4
20260509073225 22 71 0.0 3.2 0.00 0.00 0.00 96 1012.4
20260509072721 22 79 0.0 1.6 0.00 0.00 0.00 96 1012.6
20260509072218 22 67 0.0 0.0 0.00 0.00 0.00 96 1012.5
20260509071715 22 66 0.0 0.0 0.00 0.00 0.00 95 1012.9
20260509071212 22 66 0.0 0.0 0.00 0.00 0.00 95 1012.7
20260509070709 22 68 0.0 0.0 0.00 0.00 0.00 95 1012.7
20260509070205 22 78 0.0 1.6 0.00 0.00 0.00 95 1012.5
20260509065702 22 66 0.0 0.0 0.00 0.00 0.00 95 1012.6
20260509065158 22 71 0.0 0.0 0.00 0.00 0.00 95 1012.6
20260509064655 22 66 0.0 0.0 0.00 0.00 0.00 95 1012.6
20260509064152 22 67 0.0 0.0 0.00 0.00 0.00 95 1012.4
20260509063649 22 79 1.6 3.2 0.00 0.00 0.00 95 1012.3
20260509063145 22 92 1.6 3.2 0.00 0.00 0.00 95 1012.3
20260509062643 22 93 0.0 3.2 0.00 0.00 0.00 95 1012.4
20260509062140 22 79 0.0 4.8 0.00 0.00 0.00 94 1012.1
20260509061636 22 78 0.0 1.6 0.00 0.00 0.00 94 1012.1
20260509061134 22 104 3.2 6.4 0.00 0.00 0.00 94 1012.5
20260509060632 22 91 0.0 3.2 0.00 0.00 0.00 94 1012.2
20260509060127 22 76 1.6 3.2 0.00 0.00 0.00 94 1012.5
20260509055623 22 70 1.6 4.8 0.00 0.00 0.00 94 1012.6
20260509055119 22 81 1.6 1.6 0.00 0.00 0.00 94 1012.4
20260509054616 22 62 0.0 4.8 0.00 0.00 0.00 94 1012.2
20260509054114 22 74 0.0 1.6 0.00 0.00 0.00 94 1012.3
20260509053612 22 70 0.0 0.0 0.00 0.00 0.00 94 1012.3
20260509053109 22 63 0.0 1.6 0.00 0.00 0.00 94 1012.1
20260509052607 22 72 0.0 1.6 0.00 0.00 0.00 94 1012.0
20260509052104 22 72 0.0 3.2 0.00 0.00 0.00 94 1012.0
20260509051602 22 125 3.2 4.8 0.00 0.00 0.00 94 1012.0
20260509051059 22 93 3.2 9.7 0.00 0.00 0.00 94 1012.0
20260509050556 22 61 3.2 4.8 0.00 0.00 0.00 94 1011.9
20260509050052 22 93 3.2 4.8 0.00 0.05 0.05 94 1012.1
20260509045550 22 93 3.2 6.4 0.00 0.05 0.05 94 1012.1
20260509045046 22 187 3.2 9.7 0.00 0.05 0.05 94 1012.3
20260509044544 22 128 3.2 6.4 0.00 0.05 0.05 94 1012.1
20260509044041 22 91 1.6 3.2 0.00 0.05 0.05 94 1011.7
20260509043537 23 81 3.2 4.8 0.00 0.05 0.05 93 1011.9
20260509043033 23 87 1.6 6.4 0.00 0.05 0.05 93 1011.6
20260509042529 23 134 3.2 4.8 0.00 0.05 0.05 93 1011.7
20260509042026 23 115 3.2 6.4 0.00 0.05 0.05 92 1012.0
20260509041522 23 82 1.6 3.2 0.00 0.05 0.05 92 1011.7
20260509041020 23 92 0.0 3.2 0.00 0.05 0.05 91 1011.7
20260509040518 23 77 4.8 4.8 0.00 0.05 0.05 91 1011.8
20260509040015 23 73 1.6 4.8 0.00 0.05 0.05 91 1011.7
20260509035512 23 125 3.2 6.4 0.00 0.05 0.05 91 1011.8
20260509035008 23 135 3.2 4.8 0.00 0.05 0.05 90 1011.6
20260509034507 23 130 6.4 11.3 0.00 0.05 0.05 90 1011.6
20260509034003 23 77 1.6 3.2 0.00 0.05 0.05 90 1011.5
20260509033500 23 93 1.6 6.4 0.00 0.05 0.05 89 1011.7
20260509032957 23 81 0.0 9.7 0.00 0.05 0.05 89 1011.7
20260509032454 23 72 3.2 6.4 0.00 0.05 0.05 89 1011.6
20260509031952 23 67 3.2 6.4 0.00 0.05 0.05 89 1011.4
20260509031449 23 83 4.8 9.7 0.00 0.05 0.05 89 1011.5
20260509030946 23 86 1.6 6.4 0.00 0.05 0.05 89 1011.4
20260509030444 23 114 3.2 4.8 0.00 0.05 0.05 88 1011.5
20260509025941 23 97 3.2 3.2 0.00 0.05 0.05 88 1011.4
20260509025437 23 106 3.2 3.2 0.00 0.05 0.05 88 1011.5
20260509024932 23 114 3.2 6.4 0.00 0.05 0.05 88 1011.3
20260509024428 23 99 3.2 4.8 0.00 0.05 0.05 88 1011.4
20260509023925 23 64 1.6 6.4 0.00 0.05 0.05 88 1011.4
20260509023423 23 125 3.2 4.8 0.00 0.05 0.05 88 1011.2
20260509022919 24 83 1.6 3.2 0.00 0.05 0.05 87 1011.4
20260509022416 24 89 4.8 6.4 0.00 0.05 0.05 87 1011.4
20260509021914 24 99 3.2 6.4 0.00 0.05 0.05 87 1011.3
20260509021410 24 78 0.0 1.6 0.00 0.05 0.05 87 1011.2
20260509020908 24 73 0.0 3.2 0.00 0.05 0.05 86 1011.3
20260509020406 24 79 1.6 3.2 0.00 0.05 0.05 86 1011.3
20260509015903 24 113 1.6 3.2 0.00 0.05 0.05 86 1011.1
20260509015401 24 79 0.0 3.2 0.00 0.05 0.05 86 1011.2
20260509014857 24 81 0.0 1.6 0.00 0.05 0.05 86 1011.0
20260509014354 24 76 0.0 1.6 0.00 0.05 0.05 86 1011.1
20260509013851 24 70 0.0 1.6 0.00 0.05 0.05 86 1011.4
20260509013348 25 80 0.0 3.2 0.00 0.05 0.05 86 1011.1
20260509012843 25 85 0.0 1.6 0.00 0.05 0.05 86 1011.2
20260509012340 25 84 0.0 1.6 0.00 0.05 0.05 86 1011.2
20260509011838 25 65 1.6 3.2 0.00 0.05 0.05 86 1010.9
20260509011335 25 79 0.0 3.2 0.00 0.05 0.05 85 1011.0
20260509010833 25 82 0.0 1.6 0.00 0.05 0.05 86 1010.8
20260509010330 25 69 0.0 3.2 0.00 0.05 0.05 86 1010.9
20260509005827 25 90 1.6 3.2 0.00 0.05 0.05 85 1010.9
20260509005325 25 117 3.2 3.2 0.00 0.05 0.05 85 1010.9
20260509004825 25 109 1.6 3.2 0.00 0.05 0.05 85 1010.7
20260509004322 25 73 1.6 3.2 0.00 0.05 0.05 84 1010.6
20260509003820 25 106 3.2 4.8 0.00 0.05 0.05 83 1010.6
20260509003317 25 104 1.6 3.2 0.00 0.05 0.05 83 1010.8
20260509002814 25 78 0.0 3.2 0.00 0.05 0.05 83 1010.9
20260509002312 25 79 1.6 6.4 0.00 0.05 0.05 83 1010.9
20260509001809 25 88 1.6 4.8 0.00 0.05 0.05 83 1010.8
20260509001305 25 73 0.0 3.2 0.00 0.05 0.05 83 1010.8
20260509000803 25 89 3.2 6.4 0.00 0.05 0.05 83 1010.9
20260509000300 25 93 3.2 4.8 0.00 0.05 0.05 82 1010.9
20260508235756 25 73 1.6 3.2 0.00 0.05 0.05 82 1010.6
20260508235253 25 153 1.6 3.2 0.00 0.05 0.05 81 1010.6
20260508234751 25 76 0.0 6.4 0.00 0.05 0.05 81 1010.7
20260508234247 26 79 3.2 4.8 0.00 0.05 0.05 81 1010.8
20260508233746 26 79 1.6 4.8 0.00 0.05 0.05 80 1010.8
20260508233244 26 101 6.4 9.7 0.00 0.05 0.05 80 1010.8
20260508232741 26 104 1.6 3.2 0.00 0.05 0.05 81 1010.7
20260508232238 26 65 3.2 3.2 0.00 0.05 0.05 80 1010.8
20260508231736 26 110 3.2 4.8 0.00 0.05 0.05 80 1010.9
20260508231232 26 88 1.6 3.2 0.00 0.05 0.05 80 1010.8
20260508230729 26 77 1.6 6.4 0.00 0.05 0.05 79 1010.7
20260508230225 26 93 1.6 6.4 0.00 0.05 0.05 79 1010.6
20260508225723 26 90 3.2 4.8 0.00 0.05 0.05 79 1010.5
20260508225219 26 92 3.2 4.8 0.00 0.05 0.05 80 1010.8
20260508224717 26 69 1.6 1.6 0.00 0.05 0.05 79 1010.9
20260508224215 26 111 1.6 1.6 0.00 0.05 0.05 79 1011.0
20260508223712 26 49 0.0 3.2 0.00 0.05 0.05 79 1011.0
20260508223209 26 77 1.6 4.8 0.00 0.05 0.05 78 1010.9
20260508222706 26 91 1.6 3.2 0.00 0.05 0.05 77 1011.1
20260508222204 26 76 1.6 1.6 0.00 0.05 0.05 77 1011.0
20260508221700 26 91 1.6 4.8 0.00 0.05 0.05 76 1010.8
20260508221155 26 76 1.6 3.2 0.00 0.05 0.05 75 1010.9
20260508220652 27 130 1.6 3.2 0.00 0.05 0.05 75 1010.9
20260508220149 27 93 1.6 3.2 0.00 0.05 0.05 75 1010.8
20260508215645 27 70 0.0 1.6 0.00 0.05 0.05 74 1011.0
20260508215142 27 67 0.0 1.6 0.00 0.05 0.05 75 1010.8
20260508214639 27 92 1.6 4.8 0.00 0.05 0.05 75 1011.0
20260508214137 27 89 3.2 3.2 0.00 0.05 0.05 74 1011.1
20260508213633 27 72 0.0 3.2 0.00 0.05 0.05 74 1011.1
20260508213129 27 90 3.2 3.2 0.00 0.05 0.05 71 1011.1
20260508212626 27 79 0.0 1.6 0.00 0.05 0.05 73 1011.1
20260508212122 27 71 0.0 1.6 0.00 0.05 0.05 72 1011.2
20260508211618 27 70 0.0 0.0 0.00 0.05 0.05 73 1011.3
20260508211114 27 64 0.0 0.0 0.00 0.05 0.05 74 1011.4
20260508210611 27 59 0.0 1.6 0.00 0.05 0.05 73 1011.6
20260508210109 27 62 0.0 1.6 0.00 0.05 0.05 74 1011.6
20260508205606 27 79 3.2 4.8 0.00 0.05 0.05 72 1011.7
20260508205102 27 80 0.0 3.2 0.00 0.05 0.05 72 1011.9
20260508204558 28 38 1.6 3.2 0.00 0.05 0.05 73 1011.6
20260508204054 27 76 0.0 3.2 0.00 0.05 0.05 73 1011.7
20260508203551 27 82 0.0 1.6 0.00 0.05 0.05 73 1012.0
20260508203046 27 103 3.2 3.2 0.00 0.05 0.05 73 1012.1
20260508202544 26 76 0.0 1.6 0.00 0.05 0.05 74 1011.9
20260508202041 26 84 1.6 3.2 0.00 0.05 0.05 74 1012.1